Weather History for Stillwater, OK

Change the Weather History Date:

Thursday, September 26, 2013

  Actual Average Record
Temperature  
Mean Temperature 80 °F -  
Max Temperature 96 °F 79 °F 96 °F (2013)
Min Temperature 63 °F 53 °F 34 °F (2000)
Cooling Degree Days 14    
Growing Degree Days 30 (Base 50)    
Moisture  
Dew Point 56 °F    
Average Humidity 47    
Maximum Humidity 78    
Minimum Humidity 27    
Precipitation  
Precipitation 0.00 in - - ()
Sea Level Pressure  
Sea Level Pressure 29.78 in    
Wind  
Wind Speed 12 mph (SSE)    
Max Wind Speed 22 mph    
Max Gust Speed 34 mph    
Visibility 10 miles    
Events      
Averages and records for this station are not official NWS values.
T = Trace of Precipitation, MM = Missing Value Source: NWS Daily Summary

Daily Weather History Graph

Daily Weather History Graph

Search for Another Location

Airport:

Trip Planner

Search our weather history database for the weather conditions in past years. The results will help you decide how hot, cold, wet, or windy it might be!

Date:

Astronomy

Sep. 26, 2013 Rise Set
Actual Time 7:19 AM CDT 7:18 PM CDT
Civil Twilight 6:54 AM CDT 7:44 PM CDT
Nautical Twilight 6:24 AM CDT 8:14 PM CDT
Astronomical Twilight 5:54 AM CDT 8:44 PM CDT
Moon No Moon Rise 2:03 PM CDT (9/26)
Length of Visible Light 12h 50m
Length of Day
11h 59m
Waning Gibbous, 54% of the Moon is Illuminated
Sep 26
Waning Gibbous
Sep 26
Last Quarter
Oct 4
New
Oct 11
First Quarter
Oct 18
Full

Hourly Weather History & Observations

Time (CDT) Temp. Heat Index Dew Point Humidity Pressure Visibility Wind Dir Wind Speed Gust Speed Precip Events Conditions
12:53 AM 69.1 °F - 55.9 °F 63% 29.74 in 10.0 mi SE 10.4 mph - N/A   Clear
1:53 AM 68.0 °F - 55.0 °F 63% 29.75 in 10.0 mi SE 8.1 mph - N/A   Clear
2:53 AM 63.0 °F - 55.9 °F 78% 29.76 in 10.0 mi ENE 5.8 mph - N/A   Clear
3:53 AM 66.0 °F - 55.9 °F 70% 29.76 in 10.0 mi SE 8.1 mph - N/A   Clear
4:53 AM 64.9 °F - 55.0 °F 70% 29.76 in 10.0 mi SE 8.1 mph - N/A   Clear
5:53 AM 64.0 °F - 54.0 °F 70% 29.76 in 10.0 mi SE 9.2 mph - N/A   Clear
6:53 AM 64.9 °F - 53.1 °F 65% 29.77 in 10.0 mi SSE 9.2 mph - N/A   Clear
7:53 AM 68.0 °F - 53.1 °F 59% 29.79 in 10.0 mi SSE 10.4 mph - N/A   Clear
8:53 AM 73.0 °F - 53.1 °F 49% 29.81 in 10.0 mi SSE 12.7 mph 18.4 mph N/A   Clear
9:53 AM 78.1 °F - 54.0 °F 43% 29.82 in 10.0 mi South 16.1 mph 23.0 mph N/A   Clear
10:53 AM 84.9 °F 83.7 °F 55.9 °F 37% 29.82 in 10.0 mi South 13.8 mph 24.2 mph N/A   Clear
11:53 AM 89.1 °F 87.7 °F 57.0 °F 34% 29.81 in 10.0 mi South 16.1 mph 24.2 mph N/A   Clear
12:53 PM 91.9 °F 90.6 °F 57.0 °F 31% 29.80 in 10.0 mi South 18.4 mph 23.0 mph N/A   Clear
1:53 PM 93.9 °F 92.9 °F 57.9 °F 30% 29.78 in 10.0 mi South 17.3 mph 26.5 mph N/A   Clear
2:53 PM 95.0 °F 94.0 °F 57.9 °F 29% 29.76 in 10.0 mi SSE 21.9 mph 34.5 mph N/A   Clear
3:53 PM 96.1 °F 94.8 °F 57.0 °F 27% 29.75 in 10.0 mi South 15.0 mph 25.3 mph N/A   Clear
4:53 PM 93.9 °F 92.6 °F 57.0 °F 29% 29.75 in 10.0 mi SSE 19.6 mph 28.8 mph N/A   Clear
5:53 PM 91.9 °F 90.6 °F 57.0 °F 31% 29.75 in 10.0 mi SSE 18.4 mph 26.5 mph N/A   Clear
6:53 PM 88.0 °F 86.9 °F 57.9 °F 36% 29.75 in 10.0 mi SSE 17.3 mph 20.7 mph N/A   Clear
7:53 PM 84.9 °F 84.2 °F 57.9 °F 40% 29.76 in 10.0 mi SSE 12.7 mph - N/A   Clear
8:53 PM 82.9 °F 82.6 °F 57.9 °F 42% 29.78 in 10.0 mi SSE 12.7 mph - N/A   Clear
9:53 PM 81.0 °F 81.1 °F 57.9 °F 45% 29.79 in 10.0 mi SSE 12.7 mph - N/A   Clear
10:53 PM 79.0 °F - 57.0 °F 47% 29.80 in 10.0 mi SSE 9.2 mph 19.6 mph N/A   Clear
11:53 PM 77.0 °F - 57.0 °F 50% 29.81 in 10.0 mi SSE 11.5 mph - N/A   Clear